Year,Month,Day,Hour,Minute,Value (Times are PST for windgust in km/hr)
2012,01,26,00,00,17.70
2012,01,26,00,01,16.10
2012,01,26,00,02,16.10
2012,01,26,00,03,14.50
2012,01,26,00,04,16.10
2012,01,26,00,05,11.30
2012,01,26,00,06,9.60
2012,01,26,00,07,11.30
2012,01,26,00,08,14.50
2012,01,26,00,09,14.50
2012,01,26,00,10,16.10
2012,01,26,00,11,11.30
2012,01,26,00,12,16.10
2012,01,26,00,13,16.10
2012,01,26,00,14,17.70
2012,01,26,00,15,16.10
2012,01,26,00,16,11.30
2012,01,26,00,17,14.50
2012,01,26,00,18,14.50
2012,01,26,00,19,9.60
2012,01,26,00,20,9.60
2012,01,26,00,21,9.60
2012,01,26,00,22,11.30
2012,01,26,00,23,11.30
2012,01,26,00,24,11.30
2012,01,26,00,25,8.10
2012,01,26,00,26,9.60
2012,01,26,00,27,11.30
2012,01,26,00,28,11.30
2012,01,26,00,29,11.30
2012,01,26,00,30,9.60
2012,01,26,00,31,11.30
2012,01,26,00,32,11.30
2012,01,26,00,33,9.60
2012,01,26,00,34,17.70
2012,01,26,00,35,16.10
2012,01,26,00,36,11.30
2012,01,26,00,37,9.60
2012,01,26,00,38,14.50
2012,01,26,00,39,14.50
2012,01,26,00,40,11.30
2012,01,26,00,41,14.50
2012,01,26,00,42,9.60
2012,01,26,00,43,11.30
2012,01,26,00,44,14.50
2012,01,26,00,45,11.30
2012,01,26,00,46,9.60
2012,01,26,00,47,6.40
2012,01,26,00,48,9.60
2012,01,26,00,49,9.60
2012,01,26,00,50,9.60
2012,01,26,00,51,4.80
2012,01,26,00,52,14.50
2012,01,26,00,53,14.50
2012,01,26,00,54,4.80
2012,01,26,00,55,6.40
2012,01,26,00,56,6.40
2012,01,26,00,57,4.80
2012,01,26,00,58,4.80
2012,01,26,00,59,3.20
2012,01,26,01,00,3.20
2012,01,26,01,01,4.80
2012,01,26,01,02,4.80
2012,01,26,01,03,1.60
2012,01,26,01,04,4.80
2012,01,26,01,05,4.80
2012,01,26,01,06,6.40
2012,01,26,01,07,4.80
2012,01,26,01,08,6.40
2012,01,26,01,09,6.40
2012,01,26,01,10,6.40
2012,01,26,01,11,3.20
2012,01,26,01,12,8.10
2012,01,26,01,13,8.10
2012,01,26,01,14,6.40
2012,01,26,01,15,8.10
2012,01,26,01,16,6.40
2012,01,26,01,17,11.30
2012,01,26,01,18,11.30
2012,01,26,01,19,11.30
2012,01,26,01,20,11.30
2012,01,26,01,21,9.60
2012,01,26,01,22,9.60
2012,01,26,01,23,12.90
2012,01,26,01,24,14.50
2012,01,26,01,25,16.10
2012,01,26,01,26,9.60
2012,01,26,01,27,9.60
2012,01,26,01,28,8.10
2012,01,26,01,29,11.30
2012,01,26,01,30,6.40
2012,01,26,01,31,11.30
2012,01,26,01,32,11.30
2012,01,26,01,33,9.60
2012,01,26,01,34,11.30
2012,01,26,01,35,4.80
2012,01,26,01,36,9.60
2012,01,26,01,37,8.10
2012,01,26,01,38,6.40
2012,01,26,01,39,6.40
2012,01,26,01,40,6.40
2012,01,26,01,41,4.80
2012,01,26,01,42,4.80
2012,01,26,01,43,6.40
2012,01,26,01,44,6.40
2012,01,26,01,45,6.40
2012,01,26,01,46,6.40
2012,01,26,01,47,9.60
2012,01,26,01,48,4.80
2012,01,26,01,49,25.70
2012,01,26,01,50,20.90
2012,01,26,01,51,11.30
2012,01,26,01,52,11.30
2012,01,26,01,53,22.50
2012,01,26,01,54,17.70
2012,01,26,01,55,6.40
2012,01,26,01,56,4.80
2012,01,26,01,57,3.20
2012,01,26,02,00,4.80
2012,01,26,02,01,3.20
2012,01,26,02,02,4.80
2012,01,26,02,03,4.80
2012,01,26,02,04,3.20
2012,01,26,02,05,4.80
2012,01,26,02,06,4.80
2012,01,26,02,07,3.20
2012,01,26,02,08,6.40
2012,01,26,02,09,14.50
2012,01,26,02,10,8.10
2012,01,26,02,11,8.10
2012,01,26,02,12,9.60
2012,01,26,02,13,6.40
2012,01,26,02,14,4.80
2012,01,26,02,15,4.80
2012,01,26,02,16,3.20
2012,01,26,02,17,6.40
2012,01,26,02,18,8.10
2012,01,26,02,19,6.40
2012,01,26,02,20,4.80
2012,01,26,02,21,4.80
2012,01,26,02,22,3.20
2012,01,26,02,23,3.20
2012,01,26,02,24,4.80
2012,01,26,02,25,3.20
2012,01,26,02,26,1.60
2012,01,26,02,27,4.80
2012,01,26,02,28,4.80
2012,01,26,02,29,4.80
2012,01,26,02,30,6.40
2012,01,26,02,31,6.40
2012,01,26,02,32,6.40
2012,01,26,02,33,6.40
2012,01,26,02,34,6.40
2012,01,26,02,35,3.20
2012,01,26,02,36,3.20
2012,01,26,02,37,1.60
2012,01,26,02,38,3.20
2012,01,26,02,39,6.40
2012,01,26,02,40,4.80
2012,01,26,02,41,3.20
2012,01,26,02,42,1.60
2012,01,26,02,45,1.60
2012,01,26,02,49,3.20
2012,01,26,02,51,4.80
2012,01,26,02,52,1.60
2012,01,26,02,53,3.20
2012,01,26,02,55,1.60
2012,01,26,02,56,3.20
2012,01,26,02,57,1.60
2012,01,26,02,58,1.60
2012,01,26,02,59,3.20
2012,01,26,03,01,1.60
2012,01,26,03,02,1.60
2012,01,26,03,03,3.20
2012,01,26,03,04,1.60
2012,01,26,03,05,4.80
2012,01,26,03,06,1.60
2012,01,26,03,07,3.20
2012,01,26,03,08,3.20
2012,01,26,03,09,3.20
2012,01,26,03,10,1.60
2012,01,26,03,11,1.60
2012,01,26,03,14,4.80
2012,01,26,03,15,3.20
2012,01,26,03,16,1.60
2012,01,26,03,17,1.60
2012,01,26,03,18,3.20
2012,01,26,03,19,3.20
2012,01,26,03,20,3.20
2012,01,26,03,22,4.80
2012,01,26,03,23,3.20
2012,01,26,03,26,3.20
2012,01,26,03,27,1.60
2012,01,26,03,28,8.10
2012,01,26,03,29,4.80
2012,01,26,03,30,6.40
2012,01,26,03,31,9.60
2012,01,26,03,32,6.40
2012,01,26,03,33,4.80
2012,01,26,03,34,4.80
2012,01,26,03,35,3.20
2012,01,26,03,36,1.60
2012,01,26,03,37,4.80
2012,01,26,03,38,4.80
2012,01,26,03,39,4.80
2012,01,26,03,40,3.20
2012,01,26,03,41,6.40
2012,01,26,03,42,14.50
2012,01,26,03,43,6.40
2012,01,26,03,44,8.10
2012,01,26,03,45,6.40
2012,01,26,03,46,3.20
2012,01,26,03,47,3.20
2012,01,26,03,48,4.80
2012,01,26,03,49,8.10
2012,01,26,03,50,4.80
2012,01,26,03,51,4.80
2012,01,26,03,52,4.80
2012,01,26,03,53,3.20
2012,01,26,03,54,4.80
2012,01,26,03,55,6.40
2012,01,26,03,56,6.40
2012,01,26,03,57,4.80
2012,01,26,03,58,6.40
2012,01,26,03,59,9.60
2012,01,26,04,00,9.60
2012,01,26,04,01,6.40
2012,01,26,04,02,4.80
2012,01,26,04,03,4.80
2012,01,26,04,04,3.20
2012,01,26,04,05,11.30
2012,01,26,04,06,8.10
2012,01,26,04,07,6.40
2012,01,26,04,08,4.80
2012,01,26,04,09,3.20
2012,01,26,04,10,6.40
2012,01,26,04,11,8.10
2012,01,26,04,12,4.80
2012,01,26,04,13,4.80
2012,01,26,04,14,4.80
2012,01,26,04,15,4.80
2012,01,26,04,16,3.20
2012,01,26,04,19,1.60
2012,01,26,04,20,1.60
2012,01,26,04,21,1.60
2012,01,26,04,22,1.60
2012,01,26,04,28,1.60
2012,01,26,04,30,1.60
2012,01,26,04,32,1.60
2012,01,26,04,34,1.60
2012,01,26,04,35,1.60
2012,01,26,04,36,1.60
2012,01,26,04,37,1.60
2012,01,26,04,38,1.60
2012,01,26,04,40,1.60
2012,01,26,04,41,3.20
2012,01,26,04,42,3.20
2012,01,26,04,45,1.60
2012,01,26,04,46,1.60
2012,01,26,04,47,1.60
2012,01,26,04,48,3.20
2012,01,26,04,49,1.60
2012,01,26,04,57,3.20
2012,01,26,05,06,3.20
2012,01,26,05,07,1.60
2012,01,26,05,08,1.60
2012,01,26,05,09,3.20
2012,01,26,05,10,3.20
2012,01,26,05,11,1.60
2012,01,26,05,14,1.60
2012,01,26,05,15,3.20
2012,01,26,05,16,1.60
2012,01,26,05,20,4.80
2012,01,26,05,21,4.80
2012,01,26,05,22,6.40
2012,01,26,05,23,6.40
2012,01,26,05,24,6.40
2012,01,26,05,25,6.40
2012,01,26,05,26,4.80
2012,01,26,05,27,3.20
2012,01,26,05,28,1.60
2012,01,26,05,29,3.20
2012,01,26,05,30,3.20
2012,01,26,05,31,4.80
2012,01,26,05,32,3.20
2012,01,26,05,33,1.60
2012,01,26,05,34,3.20
2012,01,26,05,35,4.80
2012,01,26,05,36,3.20
2012,01,26,05,37,1.60
2012,01,26,05,38,4.80
2012,01,26,05,39,4.80
2012,01,26,05,40,3.20
2012,01,26,05,41,3.20
2012,01,26,05,42,6.40
2012,01,26,05,44,1.60
2012,01,26,05,45,1.60
2012,01,26,05,46,3.20
2012,01,26,05,57,3.20
2012,01,26,05,58,3.20
2012,01,26,05,59,3.20
2012,01,26,06,00,1.60
2012,01,26,06,01,6.40
2012,01,26,06,02,8.10
2012,01,26,06,03,4.80
2012,01,26,06,04,3.20
2012,01,26,06,05,6.40
2012,01,26,06,06,6.40
2012,01,26,06,07,6.40
2012,01,26,06,08,4.80
2012,01,26,06,09,6.40
2012,01,26,06,10,6.40
2012,01,26,06,11,8.10
2012,01,26,06,12,4.80
2012,01,26,06,13,3.20
2012,01,26,06,14,3.20
2012,01,26,06,15,6.40
2012,01,26,06,16,4.80
2012,01,26,06,17,1.60
2012,01,26,06,18,1.60
2012,01,26,06,19,1.60
2012,01,26,06,20,8.10
2012,01,26,06,21,8.10
2012,01,26,06,22,9.60
2012,01,26,06,23,11.30
2012,01,26,06,24,6.40
2012,01,26,06,25,4.80
2012,01,26,06,26,9.60
2012,01,26,06,27,4.80
2012,01,26,06,28,6.40
2012,01,26,06,29,6.40
2012,01,26,06,30,9.60
2012,01,26,06,31,14.50
2012,01,26,06,32,17.70
2012,01,26,06,33,6.40
2012,01,26,06,34,6.40
2012,01,26,06,35,11.30
2012,01,26,06,36,9.60
2012,01,26,06,37,6.40
2012,01,26,06,38,8.10
2012,01,26,06,39,8.10
2012,01,26,06,40,3.20
2012,01,26,06,41,4.80
2012,01,26,06,42,4.80
2012,01,26,06,43,6.40
2012,01,26,06,44,8.10
2012,01,26,06,45,6.40
2012,01,26,06,46,3.20
2012,01,26,06,47,6.40
2012,01,26,06,48,4.80
2012,01,26,06,49,8.10
2012,01,26,06,50,8.10
2012,01,26,06,51,8.10
2012,01,26,06,52,11.30
2012,01,26,06,53,6.40
2012,01,26,06,54,8.10
2012,01,26,06,55,4.80
2012,01,26,06,56,8.10
2012,01,26,06,57,4.80
2012,01,26,06,58,4.80
2012,01,26,06,59,9.60
2012,01,26,07,00,8.10
2012,01,26,07,01,4.80
2012,01,26,07,02,8.10
2012,01,26,07,03,8.10
2012,01,26,07,04,6.40
2012,01,26,07,05,9.60
2012,01,26,07,06,8.10
2012,01,26,07,07,14.50
2012,01,26,07,08,9.60
2012,01,26,07,09,8.10
2012,01,26,07,10,8.10
2012,01,26,07,11,16.10
2012,01,26,07,12,8.10
2012,01,26,07,13,9.60
2012,01,26,07,14,4.80
2012,01,26,07,15,17.70
2012,01,26,07,16,11.30
2012,01,26,07,17,9.60
2012,01,26,07,18,9.60
2012,01,26,07,19,8.10
2012,01,26,07,20,9.60
2012,01,26,07,21,6.40
2012,01,26,07,22,6.40
2012,01,26,07,23,8.10
2012,01,26,07,24,6.40
2012,01,26,07,25,9.60
2012,01,26,07,26,11.30
2012,01,26,07,27,4.80
2012,01,26,07,28,4.80
2012,01,26,07,29,6.40
2012,01,26,07,30,8.10
2012,01,26,07,31,4.80
2012,01,26,07,32,8.10
2012,01,26,07,33,4.80
2012,01,26,07,34,8.10
2012,01,26,07,35,3.20
2012,01,26,07,36,6.40
2012,01,26,07,37,3.20
2012,01,26,07,38,3.20
2012,01,26,07,39,3.20
2012,01,26,07,40,6.40
2012,01,26,07,41,4.80
2012,01,26,07,42,4.80
2012,01,26,07,43,4.80
2012,01,26,07,44,4.80
2012,01,26,07,45,3.20
2012,01,26,07,54,3.20
2012,01,26,07,55,3.20
2012,01,26,07,56,1.60
2012,01,26,07,58,1.60
2012,01,26,07,59,3.20
2012,01,26,08,00,3.20
2012,01,26,08,01,3.20
2012,01,26,08,02,4.80
2012,01,26,08,03,4.80
2012,01,26,08,04,6.40
2012,01,26,08,05,4.80
2012,01,26,08,06,6.40
2012,01,26,08,07,8.10
2012,01,26,08,08,8.10
2012,01,26,08,09,4.80
2012,01,26,08,10,6.40
2012,01,26,08,11,4.80
2012,01,26,08,12,6.40
2012,01,26,08,13,6.40
2012,01,26,08,14,4.80
2012,01,26,08,15,6.40
2012,01,26,08,16,6.40
2012,01,26,08,17,4.80
2012,01,26,08,18,4.80
2012,01,26,08,19,6.40
2012,01,26,08,20,4.80
2012,01,26,08,21,4.80
2012,01,26,08,22,3.20
2012,01,26,08,23,3.20
2012,01,26,08,24,3.20
2012,01,26,08,25,3.20
2012,01,26,08,26,1.60
2012,01,26,08,27,4.80
2012,01,26,08,28,4.80
2012,01,26,08,29,4.80
2012,01,26,08,30,6.40
2012,01,26,08,31,6.40
2012,01,26,08,32,4.80
2012,01,26,08,33,6.40
2012,01,26,08,34,6.40
2012,01,26,08,35,8.10
2012,01,26,08,36,8.10
2012,01,26,08,37,8.10
2012,01,26,08,38,9.60
2012,01,26,08,39,8.10
2012,01,26,08,40,6.40
2012,01,26,08,41,6.40
2012,01,26,08,42,6.40
2012,01,26,08,43,6.40
2012,01,26,08,44,6.40
2012,01,26,08,45,8.10
2012,01,26,08,46,6.40
2012,01,26,08,47,4.80
2012,01,26,08,48,4.80
2012,01,26,08,49,6.40
2012,01,26,08,50,11.30
2012,01,26,08,51,6.40
2012,01,26,08,52,4.80
2012,01,26,08,53,4.80
2012,01,26,08,54,4.80
2012,01,26,08,55,4.80
2012,01,26,08,56,8.10
2012,01,26,08,57,8.10
2012,01,26,08,58,6.40
2012,01,26,08,59,4.80
2012,01,26,09,00,4.80
2012,01,26,09,01,6.40
2012,01,26,09,02,8.10
2012,01,26,09,03,6.40
2012,01,26,09,04,4.80
2012,01,26,09,05,6.40
2012,01,26,09,06,9.60
2012,01,26,09,07,4.80
2012,01,26,09,08,8.10
2012,01,26,09,09,9.60
2012,01,26,09,10,6.40
2012,01,26,09,11,4.80
2012,01,26,09,12,4.80
2012,01,26,09,13,3.20
2012,01,26,09,14,3.20
2012,01,26,09,15,3.20
2012,01,26,09,16,1.60
2012,01,26,09,17,4.80
2012,01,26,09,18,3.20
2012,01,26,09,19,3.20
2012,01,26,09,20,3.20
2012,01,26,09,21,4.80
2012,01,26,09,22,3.20
2012,01,26,09,23,3.20
2012,01,26,09,24,1.60
2012,01,26,09,25,1.60
2012,01,26,09,26,3.20
2012,01,26,09,27,3.20
2012,01,26,09,28,6.40
2012,01,26,09,30,6.40
2012,01,26,09,31,4.80
2012,01,26,09,32,3.20
2012,01,26,09,33,3.20
2012,01,26,09,34,1.60
2012,01,26,09,35,4.80
2012,01,26,09,36,3.20
2012,01,26,09,37,1.60
2012,01,26,09,39,8.10
2012,01,26,09,40,9.60
2012,01,26,09,41,3.20
2012,01,26,09,42,3.20
2012,01,26,09,43,4.80
2012,01,26,09,44,1.60
2012,01,26,09,45,1.60
2012,01,26,09,46,3.20
2012,01,26,09,47,1.60
2012,01,26,09,48,3.20
2012,01,26,09,50,3.20
2012,01,26,09,51,4.80
2012,01,26,09,52,3.20
2012,01,26,09,53,4.80
2012,01,26,09,54,4.80
2012,01,26,09,55,8.10
2012,01,26,09,56,3.20
2012,01,26,10,01,6.40
2012,01,26,10,02,3.20
2012,01,26,10,03,4.80
2012,01,26,10,04,1.60
2012,01,26,10,05,4.80
2012,01,26,10,06,3.20
2012,01,26,10,07,3.20
2012,01,26,10,08,3.20
2012,01,26,10,09,3.20
2012,01,26,10,10,3.20
2012,01,26,10,11,1.60
2012,01,26,10,12,3.20
2012,01,26,10,13,8.10
2012,01,26,10,14,4.80
2012,01,26,10,15,4.80
2012,01,26,10,16,4.80
2012,01,26,10,17,4.80
2012,01,26,10,18,4.80
2012,01,26,10,19,4.80
2012,01,26,10,20,4.80
2012,01,26,10,21,3.20
2012,01,26,10,22,4.80
2012,01,26,10,23,1.60
2012,01,26,10,24,4.80
2012,01,26,10,25,4.80
2012,01,26,10,26,3.20
2012,01,26,10,27,1.60
2012,01,26,10,28,4.80
2012,01,26,10,29,4.80
2012,01,26,10,30,3.20
2012,01,26,10,31,3.20
2012,01,26,10,32,3.20
2012,01,26,10,33,4.80
2012,01,26,10,34,8.10
2012,01,26,10,35,4.80
2012,01,26,10,36,4.80
2012,01,26,10,38,1.60
2012,01,26,10,39,4.80
2012,01,26,10,40,4.80
2012,01,26,10,41,4.80
2012,01,26,10,42,1.60
2012,01,26,10,43,6.40
2012,01,26,10,44,3.20
2012,01,26,10,45,4.80
2012,01,26,10,46,3.20
2012,01,26,10,47,3.20
2012,01,26,10,49,6.40
2012,01,26,10,50,4.80
2012,01,26,10,51,4.80
2012,01,26,10,52,3.20
2012,01,26,10,53,1.60
2012,01,26,10,54,1.60
2012,01,26,10,55,3.20
2012,01,26,10,58,1.60
2012,01,26,10,59,4.80
2012,01,26,11,00,6.40
2012,01,26,11,01,8.10
2012,01,26,11,02,6.40
2012,01,26,11,03,3.20
2012,01,26,11,05,6.40
2012,01,26,11,06,3.20
2012,01,26,11,07,4.80
2012,01,26,11,08,4.80
2012,01,26,11,09,3.20
2012,01,26,11,10,4.80
2012,01,26,11,11,6.40
2012,01,26,11,12,4.80
2012,01,26,11,13,3.20
2012,01,26,11,14,1.60
2012,01,26,11,16,4.80
2012,01,26,11,17,3.20
2012,01,26,11,18,3.20
2012,01,26,11,20,1.60
2012,01,26,11,21,4.80
2012,01,26,11,22,6.40
2012,01,26,11,23,3.20
2012,01,26,11,24,1.60
2012,01,26,11,25,3.20
2012,01,26,11,26,1.60
2012,01,26,11,28,3.20
2012,01,26,11,29,3.20
2012,01,26,11,30,4.80
2012,01,26,11,31,3.20
2012,01,26,11,32,6.40
2012,01,26,11,33,3.20
2012,01,26,11,34,1.60
2012,01,26,11,35,4.80
2012,01,26,11,36,4.80
2012,01,26,11,37,8.10
2012,01,26,11,38,6.40
2012,01,26,11,39,4.80
2012,01,26,11,40,3.20
2012,01,26,11,41,4.80
2012,01,26,11,42,4.80
2012,01,26,11,43,4.80
2012,01,26,11,44,4.80
2012,01,26,11,45,6.40
2012,01,26,11,46,4.80
2012,01,26,11,47,4.80
2012,01,26,11,48,4.80
2012,01,26,11,49,6.40
2012,01,26,11,50,1.60
2012,01,26,11,51,3.20
2012,01,26,11,52,4.80
2012,01,26,11,53,1.60
2012,01,26,11,54,3.20
2012,01,26,11,55,9.60
2012,01,26,11,56,9.60
2012,01,26,11,57,1.60
2012,01,26,11,58,3.20
2012,01,26,11,59,6.40
2012,01,26,12,00,4.80
2012,01,26,12,01,6.40
2012,01,26,12,02,3.20
2012,01,26,12,03,3.20
2012,01,26,12,04,3.20
2012,01,26,12,05,3.20
2012,01,26,12,06,4.80
2012,01,26,12,07,8.10
2012,01,26,12,08,8.10
2012,01,26,12,09,3.20
2012,01,26,12,10,1.60
2012,01,26,12,11,1.60
2012,01,26,12,12,3.20
2012,01,26,12,13,1.60
2012,01,26,12,14,17.70
2012,01,26,12,15,9.60
2012,01,26,12,16,19.30
2012,01,26,12,17,6.40
2012,01,26,12,18,3.20
2012,01,26,12,19,9.60
2012,01,26,12,20,4.80
2012,01,26,12,21,8.10
2012,01,26,12,22,4.80
2012,01,26,12,23,16.10
2012,01,26,12,24,12.90
2012,01,26,12,25,14.50
2012,01,26,12,26,8.10
2012,01,26,12,27,11.30
2012,01,26,12,28,11.30
2012,01,26,12,29,16.10
2012,01,26,12,30,3.20
2012,01,26,12,31,4.80
2012,01,26,12,32,6.40
2012,01,26,12,33,8.10
2012,01,26,12,34,6.40
2012,01,26,12,35,4.80
2012,01,26,12,36,6.40
2012,01,26,12,37,6.40
2012,01,26,12,38,8.10
2012,01,26,12,39,11.30
2012,01,26,12,40,4.80
2012,01,26,12,41,3.20
2012,01,26,12,42,6.40
2012,01,26,12,43,4.80
2012,01,26,12,44,4.80
2012,01,26,12,45,3.20
2012,01,26,12,46,3.20
2012,01,26,12,47,3.20
2012,01,26,12,48,1.60
2012,01,26,12,49,4.80
2012,01,26,12,50,6.40
2012,01,26,12,51,6.40
2012,01,26,12,52,8.10
2012,01,26,12,53,4.80
2012,01,26,12,54,4.80
2012,01,26,12,55,6.40
2012,01,26,12,56,4.80
2012,01,26,13,00,6.40
2012,01,26,13,01,4.80
2012,01,26,13,02,6.40
2012,01,26,13,03,4.80
2012,01,26,13,05,4.80
2012,01,26,13,06,4.80
2012,01,26,13,07,4.80
2012,01,26,13,08,14.50
2012,01,26,13,09,16.10
2012,01,26,13,10,9.60
2012,01,26,13,11,11.30
2012,01,26,13,12,11.30
2012,01,26,13,13,6.40
2012,01,26,13,14,11.30
2012,01,26,13,15,9.60
2012,01,26,13,16,11.30
2012,01,26,13,17,11.30
2012,01,26,13,18,6.40
2012,01,26,13,19,6.40
2012,01,26,13,20,19.30
2012,01,26,13,21,16.10
2012,01,26,13,22,4.80
2012,01,26,13,23,4.80
2012,01,26,13,24,14.50
2012,01,26,13,25,9.60
2012,01,26,13,26,14.50
2012,01,26,13,27,9.60
2012,01,26,13,28,11.30
2012,01,26,13,29,14.50
2012,01,26,13,30,4.80
2012,01,26,13,31,4.80
2012,01,26,13,32,6.40
2012,01,26,13,33,6.40
2012,01,26,13,34,3.20
2012,01,26,13,35,4.80
2012,01,26,13,36,9.60
2012,01,26,13,37,12.90
2012,01,26,13,38,17.70
2012,01,26,13,39,19.30
2012,01,26,13,40,4.80
2012,01,26,13,41,4.80
2012,01,26,13,42,4.80
2012,01,26,13,43,8.10
2012,01,26,13,44,6.40
2012,01,26,13,45,6.40
2012,01,26,13,46,8.10
2012,01,26,13,47,6.40
2012,01,26,13,49,9.60
2012,01,26,13,50,9.60
2012,01,26,13,51,11.30
2012,01,26,13,52,11.30
2012,01,26,13,53,11.30
2012,01,26,13,54,8.10
2012,01,26,13,55,4.80
2012,01,26,13,56,4.80
2012,01,26,13,57,3.20
2012,01,26,13,59,1.60
2012,01,26,14,00,3.20
2012,01,26,14,01,6.40
2012,01,26,14,02,4.80
2012,01,26,14,03,3.20
2012,01,26,14,05,11.30
2012,01,26,14,06,11.30
2012,01,26,14,07,6.40
2012,01,26,14,08,6.40
2012,01,26,14,09,6.40
2012,01,26,14,10,4.80
2012,01,26,14,11,9.60
2012,01,26,14,12,9.60
2012,01,26,14,13,4.80
2012,01,26,14,14,8.10
2012,01,26,14,15,9.60
2012,01,26,14,16,8.10
2012,01,26,14,17,14.50
2012,01,26,14,18,11.30
2012,01,26,14,19,11.30
2012,01,26,14,20,14.50
2012,01,26,14,21,16.10
2012,01,26,14,22,11.30
2012,01,26,14,23,9.60
2012,01,26,14,24,9.60
2012,01,26,14,25,12.90
2012,01,26,14,26,16.10
2012,01,26,14,27,11.30
2012,01,26,14,28,8.10
2012,01,26,14,29,11.30
2012,01,26,14,30,3.20
2012,01,26,14,31,11.30
2012,01,26,14,32,11.30
2012,01,26,14,33,9.60
2012,01,26,14,34,11.30
2012,01,26,14,35,11.30
2012,01,26,14,36,8.10
2012,01,26,14,37,9.60
2012,01,26,14,38,8.10
2012,01,26,14,39,4.80
2012,01,26,14,40,17.70
2012,01,26,14,41,14.50
2012,01,26,14,42,9.60
2012,01,26,14,43,9.60
2012,01,26,14,44,6.40
2012,01,26,14,45,6.40
2012,01,26,14,46,8.10
2012,01,26,14,47,8.10
2012,01,26,14,48,4.80
2012,01,26,14,49,4.80
2012,01,26,14,50,3.20
2012,01,26,14,51,4.80
2012,01,26,14,52,3.20
2012,01,26,14,53,4.80
2012,01,26,14,54,6.40
2012,01,26,14,55,1.60
2012,01,26,14,56,16.10
2012,01,26,14,57,8.10
2012,01,26,14,58,14.50
2012,01,26,14,59,9.60
2012,01,26,15,00,6.40
2012,01,26,15,01,11.30
2012,01,26,15,02,8.10
2012,01,26,15,03,9.60
2012,01,26,15,04,9.60
2012,01,26,15,05,8.10
2012,01,26,15,06,6.40
2012,01,26,15,07,8.10
2012,01,26,15,08,8.10
2012,01,26,15,09,14.50
2012,01,26,15,10,9.60
2012,01,26,15,11,8.10
2012,01,26,15,12,8.10
2012,01,26,15,13,11.30
2012,01,26,15,14,6.40
2012,01,26,15,15,4.80
2012,01,26,15,16,3.20
2012,01,26,15,17,4.80
2012,01,26,15,18,3.20
2012,01,26,15,19,1.60
2012,01,26,15,20,4.80
2012,01,26,15,21,6.40
2012,01,26,15,22,8.10
2012,01,26,15,23,3.20
2012,01,26,15,24,12.90
2012,01,26,15,25,8.10
2012,01,26,15,26,4.80
2012,01,26,15,27,4.80
2012,01,26,15,28,1.60
2012,01,26,15,29,4.80
2012,01,26,15,30,6.40
2012,01,26,15,31,3.20
2012,01,26,15,32,3.20
2012,01,26,15,34,1.60
2012,01,26,15,35,3.20
2012,01,26,15,36,4.80
2012,01,26,15,37,6.40
2012,01,26,15,38,4.80
2012,01,26,15,39,3.20
2012,01,26,15,40,4.80
2012,01,26,15,41,6.40
2012,01,26,15,42,3.20
2012,01,26,15,43,4.80
2012,01,26,15,44,1.60
2012,01,26,15,45,4.80
2012,01,26,15,46,3.20
2012,01,26,15,47,1.60
2012,01,26,15,49,1.60
2012,01,26,15,50,3.20
2012,01,26,15,51,4.80
2012,01,26,15,52,3.20
2012,01,26,15,53,4.80
2012,01,26,15,54,4.80
2012,01,26,15,55,6.40
2012,01,26,15,56,4.80
2012,01,26,15,57,1.60
2012,01,26,15,58,1.60
2012,01,26,15,59,3.20
2012,01,26,16,00,3.20
2012,01,26,16,01,3.20
2012,01,26,16,02,1.60
2012,01,26,16,04,1.60
2012,01,26,16,05,3.20
2012,01,26,16,06,1.60
2012,01,26,16,07,1.60
2012,01,26,16,08,1.60
2012,01,26,16,09,3.20
2012,01,26,16,10,3.20
2012,01,26,16,11,3.20
2012,01,26,16,12,4.80
2012,01,26,16,13,3.20
2012,01,26,16,14,3.20
2012,01,26,16,15,1.60
2012,01,26,16,16,1.60
2012,01,26,16,17,3.20
2012,01,26,16,18,1.60
2012,01,26,16,19,1.60
2012,01,26,16,21,1.60
2012,01,26,16,22,3.20
2012,01,26,16,23,1.60
2012,01,26,16,24,3.20
2012,01,26,16,25,3.20
2012,01,26,16,26,1.60
2012,01,26,16,27,3.20
2012,01,26,16,28,3.20
2012,01,26,16,29,3.20
2012,01,26,16,30,1.60
2012,01,26,16,31,1.60
2012,01,26,16,32,3.20
2012,01,26,16,33,1.60
2012,01,26,16,34,3.20
2012,01,26,16,35,3.20
2012,01,26,16,36,1.60
2012,01,26,16,37,1.60
2012,01,26,16,38,1.60
2012,01,26,16,39,3.20
2012,01,26,16,40,3.20
2012,01,26,16,41,1.60
2012,01,26,16,42,3.20
2012,01,26,16,43,3.20
2012,01,26,16,44,1.60
2012,01,26,16,45,1.60
2012,01,26,16,46,4.80
2012,01,26,16,47,1.60
2012,01,26,16,48,3.20
2012,01,26,16,49,4.80
2012,01,26,16,50,3.20
2012,01,26,16,51,4.80
2012,01,26,16,52,4.80
2012,01,26,16,53,3.20
2012,01,26,16,54,4.80
2012,01,26,16,55,4.80
2012,01,26,16,56,4.80
2012,01,26,16,57,4.80
2012,01,26,16,58,3.20
2012,01,26,17,00,3.20
2012,01,26,17,01,3.20
2012,01,26,17,02,3.20
2012,01,26,17,04,3.20
2012,01,26,17,05,1.60
2012,01,26,17,06,3.20
2012,01,26,17,07,3.20
2012,01,26,17,08,3.20
2012,01,26,17,09,4.80
2012,01,26,17,10,4.80
2012,01,26,17,11,4.80
2012,01,26,17,12,4.80
2012,01,26,17,13,3.20
2012,01,26,17,14,3.20
2012,01,26,17,15,4.80
2012,01,26,17,16,4.80
2012,01,26,17,17,4.80
2012,01,26,17,18,4.80
2012,01,26,17,19,4.80
2012,01,26,17,20,3.20
2012,01,26,17,21,1.60
2012,01,26,17,22,1.60
2012,01,26,17,23,3.20
2012,01,26,17,25,1.60
2012,01,26,17,26,4.80
2012,01,26,17,27,3.20
2012,01,26,17,28,1.60
2012,01,26,17,29,1.60
2012,01,26,17,33,8.10
2012,01,26,17,34,4.80
2012,01,26,17,35,4.80
2012,01,26,17,40,3.20
2012,01,26,17,41,6.40
2012,01,26,17,42,4.80
2012,01,26,17,43,3.20
2012,01,26,17,44,4.80
2012,01,26,17,45,3.20
2012,01,26,17,46,3.20
2012,01,26,17,47,3.20
2012,01,26,17,48,4.80
2012,01,26,17,49,4.80
2012,01,26,17,50,1.60
2012,01,26,17,51,1.60
2012,01,26,17,53,1.60
2012,01,26,17,54,1.60
2012,01,26,17,55,1.60
2012,01,26,17,56,1.60
2012,01,26,17,58,3.20
2012,01,26,17,59,3.20
2012,01,26,18,00,4.80
2012,01,26,18,01,3.20
2012,01,26,18,03,1.60
2012,01,26,18,04,4.80
2012,01,26,18,05,4.80
2012,01,26,18,06,1.60
2012,01,26,18,08,1.60
2012,01,26,18,10,4.80
2012,01,26,18,11,4.80
2012,01,26,18,12,3.20
2012,01,26,18,13,3.20
2012,01,26,18,17,3.20
2012,01,26,18,18,6.40
2012,01,26,18,19,8.10
2012,01,26,18,20,3.20
2012,01,26,18,23,3.20
2012,01,26,18,24,3.20
2012,01,26,18,25,4.80
2012,01,26,18,26,1.60
2012,01,26,18,28,3.20
2012,01,26,18,29,6.40
2012,01,26,18,30,4.80
2012,01,26,18,31,4.80
2012,01,26,18,32,3.20
2012,01,26,18,36,3.20
2012,01,26,18,37,4.80
2012,01,26,18,38,4.80
2012,01,26,18,39,3.20
2012,01,26,18,40,3.20
2012,01,26,18,41,1.60
2012,01,26,18,42,3.20
2012,01,26,18,43,4.80
2012,01,26,18,44,4.80
2012,01,26,18,45,1.60
2012,01,26,18,46,3.20
2012,01,26,18,47,3.20
2012,01,26,18,48,4.80
2012,01,26,18,49,3.20
2012,01,26,18,50,1.60
2012,01,26,18,51,1.60
2012,01,26,18,52,3.20
2012,01,26,18,53,4.80
2012,01,26,18,54,4.80
2012,01,26,18,55,4.80
2012,01,26,18,56,8.10
2012,01,26,18,57,3.20
2012,01,26,18,58,1.60
2012,01,26,18,59,4.80
2012,01,26,19,00,4.80
2012,01,26,19,01,4.80
2012,01,26,19,02,8.10
2012,01,26,19,03,4.80
2012,01,26,19,04,3.20
2012,01,26,19,05,3.20
2012,01,26,19,06,4.80
2012,01,26,19,07,8.10
2012,01,26,19,08,8.10
2012,01,26,19,09,4.80
2012,01,26,19,10,3.20
2012,01,26,19,11,6.40
2012,01,26,19,12,3.20
2012,01,26,19,13,8.10
2012,01,26,19,14,6.40
2012,01,26,19,15,4.80
2012,01,26,19,16,1.60
2012,01,26,19,17,3.20
2012,01,26,19,18,3.20
2012,01,26,19,21,1.60
2012,01,26,19,23,1.60
2012,01,26,19,25,3.20
2012,01,26,19,26,4.80
2012,01,26,19,27,4.80
2012,01,26,19,28,1.60
2012,01,26,19,29,4.80
2012,01,26,19,30,4.80
2012,01,26,19,31,4.80
2012,01,26,19,32,3.20
2012,01,26,19,33,3.20
2012,01,26,19,34,1.60
2012,01,26,19,35,1.60
2012,01,26,19,36,1.60
2012,01,26,19,37,3.20
2012,01,26,19,40,3.20
2012,01,26,19,41,3.20
2012,01,26,19,42,3.20
2012,01,26,19,43,3.20
2012,01,26,19,44,1.60
2012,01,26,19,47,4.80
2012,01,26,19,48,6.40
2012,01,26,19,49,6.40
2012,01,26,19,50,4.80
2012,01,26,19,51,3.20
2012,01,26,19,52,1.60
2012,01,26,19,53,1.60
2012,01,26,19,54,3.20
2012,01,26,19,55,3.20
2012,01,26,19,56,3.20
2012,01,26,19,57,1.60
2012,01,26,19,58,1.60
2012,01,26,19,59,6.40
2012,01,26,20,00,3.20
2012,01,26,20,03,3.20
2012,01,26,20,04,3.20
2012,01,26,20,07,1.60
2012,01,26,20,08,1.60
2012,01,26,20,09,4.80
2012,01,26,20,10,6.40
2012,01,26,20,12,3.20